Location: Poughquag
(41.6090°N, 73.6820°W)
Time: 14:45:28
(UTC-04:00)

Envisat - Visible Passes

Search period start: 02 August 2021 00:00
Search period end: 12 August 2021 00:00
Orbit: 764 x 766 km, 98.2° (Epoch: 02 August)

Date Brightness Start Highest point End Pass type
(mag) Time Alt. Az. Time Alt. Az. Time Alt. Az.
02 Aug 5.6 05:10:59 10° NE 05:14:45 21° E 05:18:29 10° SE visible
05 Aug 5.7 05:00:02 10° NE 05:03:08 16° E 05:06:14 10° SE visible
08 Aug 5.9 04:49:25 10° ENE 04:51:30 12° E 04:53:36 10° ESE visible
10 Aug 5.5 05:13:13 10° NE 05:17:09 22° E 05:21:03 10° SE visible
